Weather History for CYSC - November, 2012

Change the Weather History Date:

Friday, November 23, 2012

  Actual Average Record
Temperature  
Mean Temperature 41 °F -  
Max Temperature 59 °F 36 °F 59 °F (2012)
Min Temperature 23 °F 21 °F 6 °F (2005)
Degree Days  
Heating Degree Days 24    
Moisture  
Dew Point 29 °F    
Average Humidity 64    
Maximum Humidity 93    
Minimum Humidity 16    
Precipitation  
Precipitation 0.24 in - - ()
Sea Level Pressure  
Sea Level Pressure 29.77 in    
Wind  
Wind Speed 4 mph ()    
Max Wind Speed 16 mph    
Max Gust Speed 26 mph    
Visibility 9.2 miles    
Events Rain    
Averages and records for this station are not official NWS values.
T = Trace of Precipitation, MM = Missing Value Source: Averaged Metar Reports

Daily Weather History Graph

Daily Weather History Graph

Search for Another Location

Airport or City:

Trip Planner

Search our weather history database for the weather conditions in past years. The results will help you decide how hot, cold, wet, or windy it might be!

Date:

Astronomy

Nov. 23, 2012 Rise Set
Actual Time 6:56 AM EST 4:09 PM EST
Civil Twilight 6:24 AM EST 4:42 PM EST
Nautical Twilight 5:47 AM EST 5:18 PM EST
Astronomical Twilight 5:12 AM EST 5:53 PM EST
Moon 1:32 PM EST (11/23) 2:01 AM EST (11/23)
Length of Visible Light 10h 18m
Length of Day
9h 12m
Waxing Gibbous, 79% of the Moon is Illuminated
Nov 23
Waxing Gibbous
Nov 28
Full
Dec 6
Last Quarter
Dec 13
New
Dec 20
First Quarter

Hourly Weather History & Observations

Time (EST) Temp. Windchill Dew Point Humidity Pressure Visibility Wind Dir Wind Speed Gust Speed Precip Events Conditions
12:00 AM 28.4 °F - 24.8 °F 86% 30.04 in 9.0 mi Variable 2.3 mph - N/A   Clear
1:00 AM 28 °F - 24 °F 77% 30.02 in 10 mi NE 2.3 mph - -  
1:00 AM 28.4 °F - 23.0 °F 80% 30.02 in 9.0 mi Variable 2.3 mph - N/A   Clear
2:00 AM 28.4 °F 23.3 °F 24.8 °F 86% 30.01 in 9.0 mi East 4.6 mph - N/A   Clear
3:00 AM 26.6 °F - 24.8 °F 93% 29.99 in 9.0 mi East 2.3 mph - N/A   Clear
4:00 AM 26 °F - 23 °F 83% 29.98 in 10 mi East 2.3 mph - -  
4:00 AM 24.8 °F - 23.0 °F 93% 29.98 in 9.0 mi Variable 2.3 mph - N/A   Clear
5:00 AM 24.8 °F 20.5 °F 23.0 °F 93% 29.96 in 9.0 mi East 3.5 mph - N/A   Clear
6:00 AM 26.6 °F - 24.8 °F 93% 29.94 in 9.0 mi Variable 2.3 mph - N/A   Clear
7:00 AM 24 °F - 22 °F 91% 29.91 in 10 mi East 4.6 mph - -  
7:00 AM 24.8 °F 19.1 °F 23.0 °F 93% 29.91 in 9.0 mi East 4.6 mph - N/A   Clear
8:00 AM 32.0 °F - 26.6 °F 80% 29.89 in 9.0 mi Variable 2.3 mph - N/A   Clear
9:00 AM 41.0 °F - 32.0 °F 70% 29.87 in 9.0 mi Calm Calm - N/A   Clear
10:00 AM 43 °F - 29 °F 47% 29.85 in 10 mi NE 1.2 mph - -  
10:00 AM 42.8 °F - 30.2 °F 61% 29.85 in 9.0 mi Calm Calm - N/A   Clear
11:00 AM 46.4 °F - 30.2 °F 53% 29.78 in 9.0 mi North 2.3 mph - N/A   Clear
12:00 PM 53.6 °F - 30.2 °F 41% 29.74 in 9.0 mi Variable 3.5 mph - N/A   Clear
12:16 PM 57.2 °F - 24.8 °F 29% 29.72 in 9.0 mi SSW 16.1 mph 21.9 mph N/A   Clear
1:00 PM 59 °F - 25 °F 16% 29.70 in 10 mi South 11.5 mph - -  
1:00 PM 59.0 °F - 24.8 °F 27% 29.70 in 9.0 mi South 13.8 mph - N/A   Clear
2:00 PM 59.0 °F - 24.8 °F 27% 29.65 in 9.0 mi South 12.7 mph 26.5 mph N/A   Clear
3:00 PM 57.2 °F - 24.8 °F 29% 29.63 in 9.0 mi SSW 11.5 mph 24.2 mph N/A   Clear
4:00 PM 54 °F - 25 °F 20% 29.62 in 10 mi South 6.9 mph - -  
4:00 PM 53.6 °F - 24.8 °F 33% 29.61 in 9.0 mi SSE 6.9 mph - N/A   Clear
5:00 PM 53.6 °F - 26.6 °F 35% 29.62 in 9.0 mi SSW 5.8 mph - N/A   Overcast
6:00 PM 53.6 °F - 28.4 °F 38% 29.63 in 9.0 mi SW 9.2 mph - N/A   Overcast
6:52 PM 51.8 °F - 30.2 °F 44% 29.64 in 9.0 mi SW 9.2 mph - N/A Rain Light Rain
7:00 PM 51 °F - 30 °F 33% 29.64 in 10 mi SW 10.4 mph - - Rain Light Rain
7:00 PM 51.8 °F - 30.2 °F 44% 29.64 in 9.0 mi SW 10.4 mph - N/A Rain Light Rain
8:00 PM 46.4 °F 45.2 °F 39.2 °F 76% 29.65 in 9.0 mi SSW 3.5 mph - N/A Rain Light Rain
9:00 PM 42.8 °F 40.1 °F 41.0 °F 93% 29.63 in 9.0 mi SSE 4.6 mph - N/A Rain Light Rain
9:53 PM 44.6 °F 40.7 °F 41.0 °F 87% 29.60 in 9.0 mi South 6.9 mph - N/A   Overcast
10:00 PM 44 °F - 40 °F 83% 29.60 in 10 mi SSE 6.9 mph - -   Clear
10:00 PM 44.6 °F 40.2 °F 41.0 °F 87% 29.60 in 9.0 mi SSE 8.1 mph - N/A   Overcast
10:04 PM 42.8 °F 38.0 °F 41.0 °F 93% 29.60 in 9.0 mi SSE 8.1 mph - N/A Rain Light Rain
11:00 PM 42.8 °F 40.1 °F 39.2 °F 87% 29.59 in 9.0 mi South 4.6 mph - N/A Rain Light Rain